SQ2CET-13 Weather Reports


Display with metric or nautical units.
time (UTC)temp
F
wind
direction
speed
MPH
gust
MPH
rain 1hr
in
rain 24hr
in
rain mn
in
humidity
%
barometer
mb
20260508012112 42 31 2.0 3.0 0.00 0.00 0.00 91 1021.0
20260508011032 42 26 1.0 2.0 0.00 0.00 0.00 91 1020.9
20260508010056 43 353 0.0 2.0 0.00 0.00 0.00 91 1020.8
20260508005119 43 121 0.0 2.0 0.00 0.00 0.00 91 1020.9
20260508004039 43 155 0.0 2.0 0.00 0.00 0.00 91 1020.7
20260508003103 43 194 1.0 2.0 0.00 0.00 0.00 91 1020.7
20260508002024 43 0.0 2.0 0.00 0.00 0.00 91 1020.8
20260508001048 43 0.0 1.0 0.00 0.00 0.00 91 1020.8
20260508000132 43 0.0 1.0 0.00 0.00 0.00 91 1020.8
20260507235031 43 0.0 0.0 0.00 0.00 0.00 91 1020.8
20260507234055 43 210 0.0 1.0 0.00 0.00 0.00 92 1020.7
20260507233140 43 20 0.0 1.0 0.00 0.00 0.00 92 1020.6
20260507232040 42 232 1.0 2.0 0.00 0.00 0.00 92 1020.5
20260507231104 42 0.0 2.0 0.00 0.00 0.00 92 1020.4
20260507230023 41 26 1.0 3.0 0.00 0.00 0.00 92 1020.5
20260507225107 41 11 1.0 4.0 0.00 0.00 0.00 91 1020.5
20260507224111 42 346 3.0 4.0 0.00 0.00 0.00 91 1020.6
20260507223031 42 8 2.0 3.0 0.00 0.00 0.00 90 1020.7
20260507222055 43 45 1.0 2.0 0.00 0.00 0.00 89 1020.8
20260507221119 43 0.0 1.0 0.00 0.01 0.00 91 1020.8
20260507220039 42 226 0.0 2.0 0.00 0.01 0.00 91 1020.6
20260507215104 42 336 0.0 2.0 0.00 0.01 0.00 91 1020.5
20260507214023 43 0.0 1.0 0.00 0.01 0.00 92 1020.6
20260507213109 42 165 0.0 2.0 0.00 0.01 0.00 92 1020.6
20260507212112 41 0.0 3.0 0.00 0.01 0.00 92 1020.3
20260507211033 41 298 0.0 2.0 0.00 0.01 0.00 92 1020.3
20260507210055 41 222 0.0 2.0 0.00 0.01 0.00 92 1020.0
20260507205120 41 48 0.0 2.0 0.00 0.01 0.00 92 1020.0
20260507204101 41 218 0.0 2.0 0.00 0.01 0.00 92 1019.9
20260507203103 41 0.0 2.0 0.00 0.01 0.00 92 1019.9
20260507202024 41 0.0 1.0 0.00 0.01 0.00 91 1019.9
20260507201049 41 0.0 1.0 0.00 0.01 0.00 91 1019.8
20260507200047 41 0.0 2.0 0.00 0.01 0.00 91 1019.6
20260507195112 41 0.0 2.0 0.00 0.02 0.00 91 1019.6
20260507194031 41 255 0.0 2.0 0.00 0.02 0.00 90 1019.2
20260507193056 41 314 0.0 2.0 0.00 0.02 0.00 90 1019.2
20260507192107 41 0.0 0.0 0.00 0.02 0.00 89 1019.2
20260507191024 42 0.0 1.0 0.00 0.02 0.00 89 1019.1
20260507190048 42 0.0 2.0 0.00 0.02 0.00 88 1019.1
20260507185112 42 0.0 2.0 0.00 0.03 0.00 87 1019.0
20260507184033 43 336 1.0 3.0 0.00 0.03 0.00 85 1018.9
20260507183057 44 318 1.0 3.0 0.00 0.03 0.00 82 1018.9
20260507182142 45 0.0 3.0 0.00 0.03 0.00 81 1018.7
20260507181032 44 337 3.0 6.0 0.00 0.04 0.00 80 1018.7
20260507180056 45 333 1.0 3.0 0.00 0.04 0.00 78 1018.7
20260507175140 45 300 0.0 4.0 0.00 0.05 0.00 77 1018.6
20260507174039 46 331 1.0 6.0 0.00 0.05 0.00 74 1018.5
20260507173056 46 1 1.0 4.0 0.00 0.06 0.00 74 1018.4
20260507172119 47 11 1.0 4.0 0.00 0.06 0.00 72 1018.3
20260507171054 47 25 2.0 5.0 0.00 0.06 0.00 70 1018.3
20260507170056 48 341 1.0 5.0 0.00 0.06 0.00 68 1018.2
20260507165120 48 345 2.0 6.0 0.00 0.07 0.00 68 1018.3
20260507164040 49 338 1.0 5.0 0.00 0.07 0.00 67 1018.1
20260507163105 50 338 2.0 6.0 0.00 0.07 0.00 65 1018.0
20260507162026 53 335 1.0 7.0 0.00 0.07 0.00 61 1018.0
20260507161048 54 234 1.0 6.0 0.00 0.08 0.00 58 1018.1
20260507160113 55 74 1.0 5.0 0.00 0.08 0.00 57 1018.1
20260507155024 54 140 2.0 5.0 0.00 0.08 0.00 58 1018.2
20260507154049 53 300 1.0 5.0 0.00 0.09 0.00 61 1017.9
20260507153058 53 3 3.0 7.0 0.00 0.09 0.00 61 1017.8
20260507152113 52 5 1.0 5.0 0.00 0.09 0.00 65 1018.0
20260507151053 50 9 2.0 6.0 0.00 0.10 0.00 67 1017.9
20260507150056 51 20 3.0 6.0 0.00 0.10 0.00 67 1017.9
20260507145140 51 55 3.0 8.0 0.00 0.11 0.00 67 1017.6
20260507144040 51 7 2.0 11.0 0.00 0.11 0.00 68 1017.7
20260507143103 51 124 2.0 8.0 0.00 0.11 0.00 68 1017.6
20260507142023 52 9 2.0 8.0 0.00 0.11 0.00 67 1017.6
20260507141048 50 141 1.0 3.0 0.00 0.11 0.00 71 1017.6
20260507140132 50 357 2.0 5.0 0.00 0.11 0.00 70 1017.6
20260507135033 51 50 2.0 5.0 0.00 0.11 0.00 68 1017.6
20260507134056 51 350 2.0 5.0 0.00 0.11 0.00 68 1017.7
20260507133104 50 314 2.0 5.0 0.00 0.11 0.00 72 1017.6
20260507132024 51 217 1.0 4.0 0.00 0.11 0.00 71 1017.5
20260507131048 50 328 2.0 6.0 0.00 0.11 0.00 72 1017.4
20260507130056 50 20 2.0 7.0 0.00 0.11 0.00 72 1017.2
20260507125141 50 62 3.0 7.0 0.00 0.11 0.00 74 1017.1
20260507124052 48 349 2.0 8.0 0.00 0.11 0.00 75 1017.2
20260507123056 49 22 3.0 9.0 0.00 0.11 0.00 74 1016.9
20260507122117 48 344 4.0 11.0 0.00 0.11 0.00 75 1016.7
20260507121112 49 349 3.0 11.0 0.00 0.11 0.00 74 1016.7
20260507120048 49 342 2.0 6.0 0.00 0.11 0.00 74 1016.7
20260507115100 49 320 2.0 8.0 0.00 0.11 0.00 74 1016.7
20260507114114 49 19 2.0 9.0 0.00 0.11 0.00 73 1016.5
20260507113033 50 308 1.0 5.0 0.00 0.11 0.00 71 1016.4
20260507112116 51 322 2.0 6.0 0.00 0.11 0.00 71 1016.5
20260507111121 50 21 2.0 6.0 0.00 0.11 0.00 72 1016.4
20260507110100 50 229 1.0 8.0 0.00 0.11 0.00 71 1016.3
20260507105103 50 333 2.0 6.0 0.00 0.12 0.00 71 1016.2
20260507104106 50 345 2.0 7.0 0.00 0.12 0.00 70 1016.2
20260507103108 49 358 2.0 7.0 0.00 0.12 0.00 72 1016.0
20260507102132 49 350 3.0 9.0 0.00 0.13 0.00 72 1015.9
20260507101053 49 333 5.0 12.0 0.00 0.15 0.00 72 1015.8
20260507100056 49 298 2.0 7.0 0.00 0.16 0.00 75 1015.6
20260507095113 48 334 3.0 7.0 0.00 0.16 0.00 76 1015.6
20260507094033 47 352 1.0 8.0 0.00 0.16 0.00 78 1015.7
20260507093158 46 339 4.0 9.0 0.00 0.16 0.00 80 1015.7
20260507092115 46 350 5.0 9.0 0.00 0.16 0.00 82 1015.6
20260507091033 46 317 2.0 9.0 0.00 0.16 0.00 84 1015.4
20260507090056 46 300 1.0 9.0 0.00 0.16 0.00 84 1015.4
20260507085122 46 315 2.0 7.0 0.00 0.17 0.00 86 1015.2
20260507084040 45 261 1.0 6.0 0.00 0.18 0.00 87 1015.0
20260507083057 45 311 3.0 7.0 0.00 0.18 0.00 87 1015.0
20260507082121 45 303 3.0 7.0 0.00 0.18 0.00 87 1015.0
20260507081032 45 303 1.0 8.0 0.00 0.18 0.00 87 1014.8
20260507080057 44 319 3.0 6.0 0.00 0.18 0.00 88 1014.8
20260507075120 44 333 3.0 11.0 0.00 0.18 0.00 87 1014.6
20260507074040 44 325 2.0 9.0 0.00 0.18 0.00 88 1014.6
20260507073104 44 315 2.0 5.0 0.00 0.19 0.00 88 1014.6
20260507072045 44 337 2.0 8.0 0.00 0.19 0.00 89 1014.4
20260507071050 43 330 3.0 7.0 0.00 0.19 0.00 90 1014.5
20260507070112 43 310 1.0 4.0 0.00 0.19 0.00 92 1014.4
20260507065032 42 335 2.0 6.0 0.00 0.19 0.00 93 1014.2
20260507064116 42 312 2.0 8.0 0.00 0.19 0.00 95 1014.2
20260507063120 41 336 3.0 9.0 0.00 0.19 0.00 96 1014.1
20260507062040 41 322 3.0 6.0 0.00 0.19 0.00 96 1014.0
20260507061104 42 306 2.0 7.0 0.00 0.19 0.00 97 1014.1
20260507060024 41 306 2.0 8.0 0.00 0.19 0.00 97 1014.0
20260507055129 41 347 3.0 6.0 0.00 0.19 0.00 97 1013.8
20260507054117 41 300 2.0 4.0 0.00 0.19 0.00 97 1013.6
20260507053028 41 327 2.0 5.0 0.00 0.19 0.00 97 1013.4
20260507052041 41 302 2.0 5.0 0.00 0.19 0.00 97 1013.4
20260507051104 41 320 3.0 9.0 0.00 0.19 0.00 97 1013.3
20260507050023 41 335 3.0 7.0 0.00 0.19 0.00 97 1013.1
20260507045108 41 324 3.0 8.0 0.00 0.19 0.00 97 1013.1
20260507044114 41 331 2.0 9.0 0.00 0.19 0.00 97 1013.0
20260507043032 41 324 2.0 10.0 0.00 0.19 0.00 97 1012.7
20260507042056 41 318 2.0 6.0 0.00 0.19 0.00 97 1012.6
20260507041120 41 325 2.0 10.0 0.00 0.19 0.00 97 1012.6
20260507040040 41 326 3.0 7.0 0.00 0.19 0.00 97 1012.6
20260507035105 41 312 1.0 5.0 0.00 0.19 0.00 97 1012.6
20260507034044 41 307 2.0 7.0 0.00 0.19 0.00 97 1012.5
20260507033048 41 309 3.0 7.0 0.00 0.19 0.00 97 1012.6
20260507032134 41 321 3.0 5.0 0.00 0.19 0.00 97 1012.5
20260507031052 41 317 2.0 6.0 0.00 0.19 0.00 97 1012.5
20260507030116 41 352 3.0 5.0 0.00 0.19 0.00 97 1012.6
20260507025119 41 350 3.0 5.0 0.00 0.19 0.00 97 1012.4
20260507024040 41 320 2.0 7.0 0.00 0.19 0.00 97 1012.3
20260507023105 41 353 3.0 8.0 0.00 0.19 0.00 97 1012.4
20260507022044 41 11 2.0 6.0 0.00 0.19 0.00 97 1012.3
20260507021048 41 322 2.0 6.0 0.00 0.19 0.00 97 1012.4
20260507020112 41 334 2.0 5.0 0.00 0.19 0.00 97 1012.3
20260507015033 41 358 2.0 8.0 0.00 0.19 0.00 97 1012.2
20260507014056 41 355 2.0 9.0 0.00 0.19 0.00 97 1012.4
20260507013120 41 349 2.0 7.0 0.00 0.19 0.00 97 1012.2